User: anonymous   Login
Location: Ehingen
(48.2869°N, 9.7112°E)
Time: 16:12:57
(UTC+02:00)
Language:

ISS - Orbit

View from above orbital plane
View from above orbital plane
View from above satellite
View from above satellite

Ground track
Ground track

The orbit data is extracted from the following two-line orbital elements,

1 25544U 98067A   17173.50175399  .00016717  00000-0  10270-3 0  9038
2 25544  51.6392  11.8445 0005077 307.6987  52.3705 15.54061177 22575
Epoch (UTC): 22 June 2017 12:02:31
Eccentricity: 0.0005077
inclination: 51.6392°
perigee height: 401 km
apogee height: 408 km
right ascension of ascending node: 11.8445°
argument of perigee: 307.6987°
revolutions per day: 15.54061177
mean anomaly at epoch: 52.3705°
orbit number at epoch: 2257

The dashed part of the orbit path shows where the satellite is in the earth's shadow,  

DLR